Location: *
(47.7167°N, 1.7333°W)
Time: 05:26:09
(UTC+00:00)

Ariane Rocket - Pass Details

Date: 09 April 2020
Orbit: 761 x 769 km, 98.7° (Epoch: 01 June)

Event Time Altitude Azimuth Distance (km) Brightness Sun altitude
Rises 20:05:57 0° 185° (S) 3,217 6.0 -13.0°
Reaches altitude 10° 20:08:24 10° 194° (SSW) 2,294 5.3 -13.3°
Maximum altitude 20:13:06 39° 262° (W) 1,141 4.4 -14.0°
Drops below altitude 10° 20:17:51 10° 331° (NNW) 2,307 6.4 -14.7°
Sets 20:20:19 0° 339° (NNW) 3,236 7.1 -15.1°
